QPF
0.03 0.04 0.09 0.07 0.02 0.02 0.01 0.01 0.01 0.00 0.00 0.00 0.01 0.01 0.01 0.01 0.01 0.01 0.01 0.01 0.01 0.01 0.01 0.01 0.01 0.03 0.04 0.04 0.07 0.09 0.12 0.12 0.11 0.10 0.07 0.06 0.05 0.04 0.04 0.03 0.04 0.03 0.02
0.08 0.12 0.09 0.05 0.02 0.02 0.01 0.01 0.00 0.00 0.00 0.00 0.00 0.00 0.00 0.00 0.01 0.01 0.01 0.01 0.01 0.01 0.01 0.01 0.01 0.03 0.05 0.05 0.08 0.11 0.13 0.13 0.12 0.11 0.09 0.08 0.06 0.04 0.03 0.03 0.02 0.02 0.03
0.07 0.08 0.04 0.03 0.01 0.01 0.01 0.01 0.01 0.01 0.00 0.00 0.00 0.00 0.00 0.00 0.00 0.01 0.01 0.01 0.01 0.02 0.02 0.02 0.02 0.04 0.04 0.05 0.10 0.11 0.11 0.11 0.10 0.09 0.07 0.06 0.06 0.06 0.06 0.05 0.04 0.03 0.03
0.05 0.07 0.05 0.03 0.02 0.01 0.01 0.01 0.01 0.01 0.01 0.01 0.01 0.01 0.01 0.01 0.01 0.01 0.01 0.01 0.03 0.03 0.03 0.03 0.03 0.04 0.06 0.06 0.08 0.11 0.11 0.10 0.10 0.09 0.06 0.05 0.03 0.04 0.05 0.05 0.04 0.04 0.02
0.04 0.06 0.05 0.03 0.02 0.02 0.02 0.01 0.01 0.01 0.01 0.01 0.01 0.02 0.02 0.01 0.01 0.01 0.01 0.01 0.02 0.03 0.03 0.03 0.04 0.05 0.08 0.08 0.07 0.07 0.10 0.10 0.08 0.07 0.05 0.04 0.03 0.03 0.03 0.04 0.04 0.03 0.02
0.01 0.02 0.02 0.02 0.02 0.01 0.01 0.01 0.01 0.01 0.01 0.01 0.01 0.02 0.01 0.01 0.01 0.01 0.01 0.01 0.02 0.02 0.02 0.01 0.04 0.07 0.10 0.12 0.07 0.06 0.07 0.07 0.07 0.06 0.05 0.04 0.03 0.02 0.03 0.03 0.03 0.02 0.02
0.00 0.00 0.01 0.01 0.01 0.01 0.01 0.01 0.01 0.01 0.01 0.02 0.02 0.01 0.01 0.01 0.02 0.02 0.03 0.03 0.02 0.02 0.02 0.02 0.04 0.05 0.06 0.08 0.07 0.05 0.07 0.07 0.07 0.06 0.05 0.05 0.03 0.03 0.04 0.05 0.04 0.02 0.02
0.00 0.01 0.00 0.00 0.01 0.01 0.01 0.01 0.01 0.01 0.01 0.03 0.03 0.03 0.02 0.02 0.01 0.02 0.02 0.03 0.03 0.03 0.03 0.03 0.03 0.03 0.04 0.04 0.05 0.06 0.08 0.08 0.06 0.05 0.04 0.05 0.05 0.05 0.06 0.07 0.06 0.04 0.03
0.00 0.00 0.01 0.01 0.01 0.00 0.00 0.01 0.01 0.01 0.01 0.02 0.05 0.05 0.04 0.01 0.01 0.01 0.02 0.03 0.03 0.03 0.03 0.02 0.02 0.03 0.03 0.03 0.04 0.05 0.07 0.06 0.06 0.04 0.04 0.05 0.05 0.06 0.07 0.08 0.08 0.07 0.05
0.00 0.01 0.01 0.01 0.00 0.00 0.00 0.00 0.01 0.01 0.01 0.01 0.04 0.04 0.02 0.01 0.01 0.02 0.02 0.03 0.03 0.03 0.02 0.02 0.02 0.03 0.03 0.03 0.04 0.04 0.04 0.04 0.03 0.02 0.02 0.03 0.04 0.06 0.07 0.08 0.09 0.08 0.06
0.01 0.01 0.01 0.01 0.01 0.01 0.01 0.01 0.01 0.02 0.02 0.02 0.03 0.04 0.04 0.04 0.03 0.03 0.03 0.03 0.03 0.03 0.03 0.03 0.03 0.03 0.03 0.04 0.04 0.04 0.03 0.02 0.02 0.02 0.03 0.03 0.04 0.06 0.07 0.07 0.07 0.07 0.05
0.01 0.01 0.02 0.01 0.01 0.01 0.01 0.02 0.03 0.04 0.04 0.05 0.06 0.06 0.06 0.07 0.05 0.03 0.03 0.03 0.03 0.03 0.03 0.03 0.02 0.02 0.02 0.03 0.02 0.03 0.02 0.01 0.02 0.02 0.02 0.03 0.05 0.06 0.07 0.08 0.07 0.06 0.05
0.01 0.02 0.02 0.01 0.01 0.01 0.02 0.03 0.04 0.05 0.07 0.10 0.13 0.13 0.12 0.10 0.07 0.04 0.02 0.02 0.02 0.03 0.03 0.03 0.02 0.01 0.02 0.03 0.02 0.02 0.02 0.02 0.02 0.02 0.03 0.04 0.04 0.05 0.06 0.08 0.07 0.04 0.03
0.02 0.03 0.02 0.02 0.03 0.04 0.06 0.06 0.06 0.07 0.08 0.12 0.15 0.17 0.16 0.10 0.06 0.03 0.01 0.01 0.02 0.02 0.02 0.02 0.02 0.01 0.02 0.02 0.02 0.02 0.02 0.01 0.02 0.02 0.02 0.02 0.02 0.02 0.02 0.03 0.03 0.03 0.02
0.03 0.04 0.04 0.04 0.08 0.10 0.12 0.11 0.10 0.09 0.10 0.13 0.17 0.18 0.15 0.08 0.05 0.03 0.01 0.01 0.01 0.01 0.02 0.01 0.01 0.01 0.02 0.02 0.01 0.02 0.02 0.02 0.02 0.01 0.01 0.01 0.01 0.01 0.02 0.02 0.03 0.03 0.02
0.04 0.05 0.04 0.05 0.07 0.09 0.10 0.11 0.13 0.16 0.16 0.16 0.16 0.14 0.10 0.06 0.03 0.02 0.01 0.01 0.01 0.01 0.02 0.02 0.02 0.01 0.02 0.02 0.02 0.02 0.02 0.03 0.02 0.02 0.01 0.01 0.01 0.02 0.02 0.02 0.03 0.03 0.02
0.04 0.04 0.05 0.05 0.05 0.06 0.09 0.11 0.12 0.15 0.14 0.12 0.11 0.09 0.06 0.03 0.02 0.01 0.01 0.01 0.01 0.02 0.02 0.03 0.02 0.02 0.02 0.03 0.02 0.03 0.03 0.02 0.02 0.03 0.03 0.03 0.02 0.02 0.02 0.02 0.02 0.02 0.02
0.03 0.03 0.03 0.05 0.06 0.08 0.11 0.13 0.12 0.10 0.09 0.08 0.07 0.05 0.03 0.01 0.01 0.01 0.01 0.01 0.02 0.03 0.03 0.03 0.03 0.02 0.02 0.03 0.03 0.03 0.03 0.02 0.02 0.02 0.02 0.03 0.04 0.04 0.03 0.02 0.02 0.01 0.01
0.03 0.03 0.02 0.02 0.03 0.04 0.06 0.09 0.10 0.09 0.07 0.05 0.04 0.03 0.02 0.01 0.01 0.00 0.01 0.02 0.03 0.04 0.04 0.03 0.03 0.03 0.03 0.04 0.04 0.03 0.03 0.03 0.02 0.02 0.03 0.02 0.02 0.03 0.03 0.02 0.02 0.01 0.01
0.02 0.03 0.03 0.03 0.04 0.04 0.04 0.06 0.07 0.07 0.05 0.05 0.04 0.02 0.01 0.00 0.00 0.01 0.02 0.03 0.05 0.05 0.05 0.05 0.03 0.03 0.02 0.03 0.04 0.05 0.04 0.04 0.03 0.03 0.03 0.03 0.03 0.02 0.02 0.01 0.01 0.01 0.01
0.01 0.01 0.02 0.04 0.04 0.05 0.05 0.06 0.06 0.06 0.06 0.07 0.07 0.05 0.02 0.02 0.02 0.03 0.03 0.04 0.05 0.05 0.05 0.05 0.04 0.02 0.02 0.02 0.03 0.03 0.04 0.05 0.04 0.03 0.03 0.03 0.02 0.02 0.01 0.01 0.01 0.01 0.01
0.01 0.01 0.01 0.04 0.07 0.09 0.08 0.06 0.05 0.06 0.07 0.07 0.07 0.06 0.05 0.05 0.05 0.04 0.04 0.05 0.06 0.06 0.06 0.05 0.05 0.04 0.02 0.02 0.03 0.03 0.03 0.03 0.03 0.02 0.02 0.02 0.02 0.01 0.01 0.01 0.00 0.01 0.01
0.01 0.01 0.02 0.02 0.03 0.06 0.08 0.06 0.05 0.06 0.07 0.06 0.05 0.05 0.06 0.05 0.04 0.05 0.05 0.06 0.06 0.06 0.06 0.06 0.05 0.04 0.04 0.04 0.03 0.03 0.03 0.02 0.02 0.02 0.02 0.03 0.02 0.01 0.01 0.00 0.01 0.01 0.00
0.01 0.01 0.02 0.03 0.03 0.04 0.06 0.07 0.06 0.06 0.08 0.07 0.05 0.05 0.06 0.06 0.06 0.05 0.05 0.06 0.07 0.06 0.07 0.06 0.05 0.04 0.04 0.03 0.02 0.02 0.01 0.01 0.01 0.01 0.02 0.02 0.02 0.02 0.01 0.01 0.01 0.01 0.01
0.01 0.01 0.02 0.05 0.06 0.06 0.06 0.06 0.06 0.06 0.07 0.08 0.08 0.09 0.09 0.10 0.09 0.08 0.07 0.07 0.06 0.05 0.05 0.04 0.03 0.02 0.02 0.02 0.02 0.02 0.01 0.01 0.01 0.02 0.01 0.01 0.02 0.02 0.03 0.03 0.03 0.03 0.03
0.01 0.02 0.02 0.05 0.07 0.07 0.05 0.05 0.04 0.06 0.08 0.09 0.11 0.13 0.13 0.11 0.10 0.08 0.08 0.07 0.06 0.04 0.02 0.02 0.02 0.02 0.02 0.02 0.02 0.02 0.02 0.02 0.03 0.03 0.03 0.03 0.04 0.04 0.04 0.04 0.03 0.03 0.02
MSLP
1012.76 1012.95 1013.07 1013.13 1013.13 1013.12 1013.14 1013.22 1013.39 1013.65 1013.99 1014.39 1014.81 1015.20 1015.55 1015.84 1016.08 1016.28 1016.47 1016.68 1016.90 1017.15 1017.41 1017.64 1017.82 1017.94 1017.98 1017.94 1017.84 1017.69 1017.54 1017.38 1017.23 1017.08 1016.92 1016.72 1016.47 1016.14 1015.76 1015.32 1014.87 1014.45 1014.09
1012.91 1013.17 1013.33 1013.40 1013.38 1013.33 1013.30 1013.33 1013.48 1013.75 1014.13 1014.57 1015.03 1015.45 1015.81 1016.08 1016.26 1016.39 1016.50 1016.61 1016.76 1016.95 1017.17 1017.40 1017.60 1017.74 1017.81 1017.81 1017.74 1017.63 1017.51 1017.39 1017.30 1017.21 1017.12 1016.99 1016.80 1016.53 1016.17 1015.74 1015.27 1014.80 1014.38
1012.79 1013.14 1013.37 1013.48 1013.48 1013.42 1013.36 1013.38 1013.52 1013.81 1014.22 1014.70 1015.21 1015.68 1016.06 1016.32 1016.48 1016.55 1016.58 1016.61 1016.68 1016.81 1016.99 1017.19 1017.38 1017.53 1017.62 1017.64 1017.60 1017.52 1017.44 1017.37 1017.33 1017.31 1017.29 1017.25 1017.13 1016.93 1016.61 1016.21 1015.73 1015.23 1014.76
1012.43 1012.88 1013.21 1013.39 1013.43 1013.39 1013.34 1013.36 1013.50 1013.80 1014.23 1014.75 1015.31 1015.82 1016.23 1016.51 1016.65 1016.69 1016.67 1016.65 1016.66 1016.72 1016.85 1017.02 1017.19 1017.33 1017.43 1017.45 1017.43 1017.38 1017.32 1017.29 1017.30 1017.34 1017.39 1017.41 1017.38 1017.24 1016.99 1016.62 1016.16 1015.66 1015.15
1011.90 1012.45 1012.88 1013.15 1013.27 1013.28 1013.25 1013.27 1013.41 1013.71 1014.14 1014.69 1015.27 1015.81 1016.25 1016.55 1016.71 1016.75 1016.71 1016.66 1016.62 1016.65 1016.73 1016.86 1017.01 1017.13 1017.21 1017.24 1017.22 1017.17 1017.13 1017.12 1017.16 1017.24 1017.34 1017.43 1017.46 1017.40 1017.21 1016.89 1016.47 1015.97 1015.45
1011.27 1011.92 1012.46 1012.83 1013.04 1013.11 1013.11 1013.14 1013.27 1013.54 1013.96 1014.49 1015.06 1015.62 1016.08 1016.41 1016.59 1016.65 1016.62 1016.57 1016.52 1016.53 1016.58 1016.68 1016.79 1016.89 1016.95 1016.96 1016.93 1016.88 1016.83 1016.83 1016.88 1016.98 1017.12 1017.24 1017.33 1017.32 1017.20 1016.95 1016.57 1016.11 1015.61
1010.64 1011.36 1012.00 1012.48 1012.77 1012.91 1012.95 1012.98 1013.09 1013.32 1013.68 1014.16 1014.70 1015.24 1015.70 1016.05 1016.26 1016.35 1016.36 1016.32 1016.29 1016.29 1016.33 1016.41 1016.50 1016.58 1016.61 1016.60 1016.55 1016.48 1016.42 1016.40 1016.45 1016.54 1016.69 1016.84 1016.96 1017.00 1016.94 1016.75 1016.45 1016.04 1015.58
1010.03 1010.80 1011.53 1012.10 1012.48 1012.69 1012.76 1012.80 1012.87 1013.04 1013.34 1013.74 1014.22 1014.70 1015.14 1015.49 1015.72 1015.85 1015.89 1015.89 1015.89 1015.91 1015.95 1016.02 1016.09 1016.14 1016.16 1016.12 1016.05 1015.96 1015.88 1015.84 1015.86 1015.95 1016.08 1016.23 1016.37 1016.45 1016.45 1016.33 1016.11 1015.79 1015.40
1009.46 1010.26 1011.04 1011.69 1012.14 1012.41 1012.52 1012.56 1012.60 1012.72 1012.93 1013.25 1013.64 1014.06 1014.46 1014.79 1015.03 1015.18 1015.26 1015.30 1015.33 1015.37 1015.42 1015.49 1015.55 1015.59 1015.58 1015.53 1015.44 1015.34 1015.24 1015.17 1015.17 1015.23 1015.34 1015.49 1015.64 1015.75 1015.80 1015.76 1015.63 1015.40 1015.10
1008.90 1009.70 1010.50 1011.19 1011.70 1012.02 1012.17 1012.23 1012.26 1012.32 1012.47 1012.71 1013.02 1013.36 1013.71 1014.01 1014.24 1014.41 1014.52 1014.59 1014.65 1014.71 1014.78 1014.85 1014.91 1014.94 1014.92 1014.86 1014.76 1014.64 1014.53 1014.45 1014.43 1014.47 1014.56 1014.70 1014.85 1014.99 1015.09 1015.12 1015.08 1014.96 1014.76
1008.33 1009.08 1009.86 1010.55 1011.09 1011.45 1011.64 1011.73 1011.78 1011.83 1011.95 1012.13 1012.38 1012.67 1012.96 1013.23 1013.45 1013.62 1013.75 1013.84 1013.92 1014.00 1014.08 1014.15 1014.21 1014.23 1014.21 1014.15 1014.05 1013.94 1013.83 1013.74 1013.71 1013.73 1013.82 1013.95 1014.10 1014.26 1014.40 1014.50 1014.54 1014.52 1014.43
1007.72 1008.37 1009.08 1009.73 1010.27 1010.65 1010.89 1011.04 1011.13 1011.21 1011.34 1011.52 1011.74 1012.00 1012.26 1012.51 1012.72 1012.89 1013.02 1013.12 1013.21 1013.30 1013.38 1013.45 1013.50 1013.53 1013.51 1013.46 1013.38 1013.27 1013.17 1013.10 1013.07 1013.09 1013.16 1013.29 1013.45 1013.62 1013.79 1013.94 1014.05 1014.11 1014.12
1007.05 1007.57 1008.16 1008.73 1009.23 1009.62 1009.90 1010.11 1010.28 1010.44 1010.62 1010.83 1011.08 1011.34 1011.60 1011.85 1012.06 1012.23 1012.36 1012.47 1012.57 1012.65 1012.73 1012.80 1012.85 1012.88 1012.87 1012.83 1012.76 1012.69 1012.61 1012.56 1012.54 1012.56 1012.64 1012.76 1012.92 1013.10 1013.28 1013.46 1013.62 1013.74 1013.81
1006.34 1006.68 1007.12 1007.57 1008.00 1008.38 1008.70 1008.97 1009.23 1009.49 1009.76 1010.05 1010.36 1010.67 1010.96 1011.23 1011.45 1011.63 1011.78 1011.90 1011.99 1012.08 1012.16 1012.22 1012.27 1012.30 1012.30 1012.28 1012.24 1012.19 1012.15 1012.12 1012.12 1012.16 1012.24 1012.35 1012.50 1012.67 1012.86 1013.04 1013.21 1013.36 1013.47
1005.63 1005.78 1006.02 1006.33 1006.66 1007.00 1007.33 1007.67 1008.01 1008.38 1008.76 1009.16 1009.55 1009.93 1010.29 1010.60 1010.86 1011.07 1011.23 1011.36 1011.47 1011.56 1011.64 1011.70 1011.75 1011.79 1011.81 1011.81 1011.80 1011.78 1011.77 1011.77 1011.79 1011.85 1011.93 1012.04 1012.17 1012.32 1012.48 1012.64 1012.80 1012.94 1013.06
1004.95 1004.90 1004.95 1005.09 1005.30 1005.57 1005.90 1006.27 1006.69 1007.15 1007.64 1008.14 1008.64 1009.11 1009.53 1009.90 1010.22 1010.47 1010.67 1010.83 1010.96 1011.07 1011.16 1011.23 1011.29 1011.34 1011.37 1011.39 1011.41 1011.43 1011.45 1011.49 1011.53 1011.60 1011.68 1011.78 1011.90 1012.01 1012.14 1012.26 1012.38 1012.48 1012.58
1004.33 1004.09 1003.96 1003.93 1004.02 1004.20 1004.49 1004.87 1005.34 1005.87 1006.44 1007.03 1007.61 1008.17 1008.67 1009.12 1009.50 1009.81 1010.06 1010.27 1010.43 1010.57 1010.68 1010.77 1010.85 1010.91 1010.97 1011.02 1011.07 1011.12 1011.17 1011.24 1011.31 1011.40 1011.48 1011.57 1011.66 1011.74 1011.82 1011.89 1011.95 1012.01 1012.05
1003.77 1003.38 1003.09 1002.93 1002.89 1002.98 1003.21 1003.57 1004.04 1004.60 1005.22 1005.87 1006.52 1007.14 1007.72 1008.24 1008.69 1009.07 1009.39 1009.66 1009.87 1010.05 1010.19 1010.31 1010.42 1010.50 1010.59 1010.66 1010.75 1010.83 1010.92 1011.02 1011.13 1011.23 1011.32 1011.41 1011.48 1011.53 1011.56 1011.58 1011.58 1011.58 1011.56
1003.26 1002.77 1002.37 1002.09 1001.96 1001.97 1002.13 1002.44 1002.88 1003.43 1004.06 1004.73 1005.41 1006.09 1006.72 1007.31 1007.83 1008.29 1008.69 1009.02 1009.30 1009.53 1009.72 1009.87 1010.01 1010.12 1010.23 1010.34 1010.46 1010.58 1010.71 1010.84 1010.98 1011.10 1011.22 1011.31 1011.37 1011.40 1011.40 1011.38 1011.33 1011.27 1011.20
1002.77 1002.24 1001.79 1001.45 1001.24 1001.18 1001.28 1001.53 1001.92 1002.43 1003.03 1003.69 1004.39 1005.09 1005.77 1006.41 1007.00 1007.54 1008.01 1008.41 1008.76 1009.05 1009.29 1009.48 1009.65 1009.79 1009.93 1010.07 1010.21 1010.37 1010.53 1010.71 1010.88 1011.04 1011.18 1011.28 1011.36 1011.39 1011.38 1011.33 1011.26 1011.16 1011.05
1002.31 1001.79 1001.34 1000.98 1000.75 1000.65 1000.69 1000.88 1001.21 1001.66 1002.21 1002.84 1003.52 1004.23 1004.94 1005.63 1006.28 1006.89 1007.43 1007.91 1008.32 1008.66 1008.95 1009.18 1009.38 1009.55 1009.71 1009.87 1010.04 1010.22 1010.43 1010.63 1010.84 1011.04 1011.21 1011.35 1011.45 1011.50 1011.50 1011.46 1011.38 1011.27 1011.15
1001.87 1001.41 1001.01 1000.69 1000.47 1000.36 1000.37 1000.51 1000.78 1001.17 1001.66 1002.24 1002.89 1003.59 1004.32 1005.04 1005.75 1006.41 1007.02 1007.56 1008.03 1008.42 1008.74 1009.00 1009.22 1009.41 1009.58 1009.76 1009.95 1010.16 1010.39 1010.63 1010.88 1011.11 1011.32 1011.50 1011.63 1011.72 1011.75 1011.73 1011.68 1011.59 1011.48
1001.51 1001.15 1000.84 1000.58 1000.40 1000.31 1000.31 1000.42 1000.64 1000.97 1001.40 1001.93 1002.55 1003.23 1003.95 1004.70 1005.44 1006.15 1006.81 1007.40 1007.91 1008.34 1008.68 1008.96 1009.19 1009.38 1009.56 1009.75 1009.95 1010.17 1010.43 1010.69 1010.97 1011.24 1011.48 1011.70 1011.87 1012.00 1012.08 1012.11 1012.10 1012.06 1011.99
1001.27 1001.02 1000.82 1000.66 1000.56 1000.50 1000.52 1000.61 1000.79 1001.06 1001.44 1001.92 1002.50 1003.15 1003.87 1004.62 1005.38 1006.12 1006.81 1007.42 1007.96 1008.40 1008.76 1009.04 1009.26 1009.45 1009.63 1009.82 1010.03 1010.26 1010.52 1010.81 1011.10 1011.39 1011.67 1011.92 1012.13 1012.30 1012.42 1012.51 1012.56 1012.58 1012.57
1001.20 1001.08 1001.00 1000.95 1000.92 1000.92 1000.96 1001.05 1001.20 1001.44 1001.76 1002.19 1002.72 1003.34 1004.03 1004.77 1005.52 1006.27 1006.96 1007.59 1008.13 1008.57 1008.93 1009.20 1009.42 1009.60 1009.78 1009.96 1010.17 1010.40 1010.67 1010.96 1011.27 1011.57 1011.86 1012.13 1012.36 1012.57 1012.74 1012.88 1012.99 1013.07 1013.13
1001.32 1001.33 1001.37 1001.42 1001.48 1001.54 1001.61 1001.70 1001.84 1002.03 1002.31 1002.68 1003.16 1003.73 1004.38 1005.09 1005.82 1006.54 1007.22 1007.83 1008.36 1008.79 1009.14 1009.40 1009.61 1009.79 1009.96 1010.14 1010.35 1010.59 1010.86 1011.15 1011.45 1011.76 1012.05 1012.32 1012.57 1012.79 1012.99 1013.16 1013.32 1013.47 1013.59
Thickness
5809 5808 5805 5803 5799 5795 5792 5790 5787 5785 5782 5778 5775 5772 5769 5769 5768 5768 5766 5766 5765 5763 5762 5760 5759 5758 5756 5756 5754 5753 5751 5749 5749 5747 5746 5748 5751 5752 5752 5752 5752 5752 5751
5806 5806 5805 5803 5800 5796 5793 5791 5788 5786 5784 5781 5778 5774 5771 5769 5768 5767 5766 5765 5764 5762 5761 5759 5758 5757 5755 5753 5752 5750 5748 5746 5746 5742 5739 5737 5740 5745 5749 5748 5748 5748 5748
5808 5807 5805 5804 5801 5798 5795 5793 5790 5787 5785 5782 5779 5775 5771 5769 5767 5766 5765 5765 5763 5762 5761 5759 5758 5756 5755 5752 5750 5749 5746 5743 5742 5741 5737 5732 5730 5735 5741 5743 5744 5744 5744
5812 5809 5807 5805 5803 5801 5798 5794 5791 5788 5785 5782 5778 5773 5769 5765 5765 5765 5764 5764 5763 5762 5760 5759 5757 5755 5754 5752 5749 5747 5745 5742 5738 5737 5737 5736 5735 5730 5730 5736 5739 5740 5740
5815 5812 5811 5809 5805 5802 5799 5795 5791 5788 5785 5782 5778 5773 5769 5767 5766 5764 5763 5762 5761 5760 5759 5758 5756 5754 5752 5750 5748 5746 5744 5741 5738 5735 5734 5733 5732 5731 5727 5727 5731 5733 5736
5817 5815 5813 5809 5805 5803 5799 5795 5791 5787 5785 5781 5777 5773 5769 5766 5764 5762 5760 5759 5759 5758 5757 5756 5754 5752 5751 5749 5747 5745 5743 5740 5738 5735 5733 5730 5728 5726 5725 5723 5724 5726 5731
5816 5813 5810 5807 5804 5802 5799 5795 5791 5787 5785 5781 5777 5774 5770 5767 5764 5761 5759 5757 5756 5755 5755 5754 5752 5750 5749 5748 5746 5744 5741 5739 5736 5733 5731 5730 5728 5727 5724 5721 5721 5721 5725
5815 5813 5811 5808 5805 5803 5799 5795 5791 5787 5784 5780 5776 5774 5770 5767 5764 5761 5759 5757 5755 5754 5753 5751 5749 5747 5746 5745 5743 5741 5739 5737 5734 5732 5729 5728 5726 5725 5723 5720 5717 5716 5717
5814 5813 5810 5807 5804 5801 5798 5794 5790 5786 5783 5779 5776 5772 5769 5765 5762 5760 5757 5755 5754 5752 5751 5749 5746 5744 5743 5741 5739 5736 5735 5733 5731 5729 5726 5724 5723 5722 5721 5719 5716 5712 5709
5810 5809 5807 5805 5803 5800 5797 5793 5789 5784 5781 5778 5774 5771 5766 5763 5760 5757 5754 5752 5750 5749 5747 5745 5743 5741 5738 5737 5734 5732 5731 5729 5727 5725 5723 5720 5719 5718 5716 5715 5713 5711 5708
5806 5805 5803 5802 5799 5796 5793 5789 5785 5780 5776 5774 5771 5767 5764 5761 5757 5754 5752 5749 5747 5745 5743 5741 5739 5737 5734 5732 5730 5728 5726 5724 5722 5720 5718 5716 5715 5713 5711 5710 5708 5707 5705
5801 5799 5797 5795 5792 5789 5786 5783 5781 5776 5773 5770 5766 5762 5760 5757 5754 5751 5748 5746 5743 5741 5739 5737 5735 5733 5730 5728 5726 5723 5721 5719 5717 5715 5712 5711 5709 5707 5706 5704 5703 5702 5701
5792 5791 5789 5787 5785 5782 5779 5777 5775 5772 5769 5765 5761 5755 5754 5751 5749 5746 5744 5741 5739 5737 5735 5733 5730 5728 5726 5723 5721 5719 5716 5714 5712 5710 5707 5705 5703 5701 5700 5698 5697 5696 5696
5783 5781 5780 5778 5776 5774 5772 5770 5768 5767 5764 5760 5756 5750 5748 5746 5743 5741 5739 5737 5735 5732 5730 5728 5726 5723 5721 5718 5716 5713 5711 5708 5706 5704 5702 5701 5698 5696 5695 5693 5692 5691 5689
5774 5773 5772 5770 5768 5766 5766 5763 5762 5760 5757 5754 5750 5746 5743 5741 5738 5735 5734 5732 5730 5728 5725 5723 5720 5718 5716 5714 5711 5708 5706 5703 5700 5698 5697 5695 5694 5692 5690 5689 5687 5685 5683
5766 5766 5764 5764 5761 5759 5758 5757 5755 5754 5751 5748 5745 5741 5737 5734 5732 5730 5729 5727 5724 5722 5719 5717 5715 5713 5712 5710 5707 5704 5700 5698 5695 5692 5691 5689 5688 5687 5686 5684 5683 5681 5678
5759 5758 5758 5757 5755 5753 5752 5749 5748 5747 5744 5741 5737 5735 5732 5728 5726 5725 5723 5720 5718 5716 5714 5711 5709 5707 5706 5704 5701 5699 5695 5692 5689 5686 5685 5684 5683 5681 5679 5678 5677 5675 5674
5753 5751 5750 5750 5749 5747 5746 5745 5742 5739 5736 5733 5730 5728 5725 5723 5721 5719 5716 5714 5712 5710 5707 5705 5703 5701 5700 5698 5695 5692 5689 5686 5683 5680 5678 5676 5674 5673 5671 5670 5669 5668 5667
5746 5744 5743 5743 5742 5740 5738 5736 5733 5730 5728 5726 5724 5721 5718 5716 5714 5711 5710 5708 5705 5702 5700 5699 5697 5695 5693 5691 5688 5685 5681 5679 5676 5674 5671 5669 5668 5666 5664 5662 5661 5660 5660
5740 5737 5736 5735 5733 5732 5730 5726 5723 5720 5719 5718 5716 5714 5711 5709 5706 5704 5702 5700 5697 5694 5692 5690 5689 5687 5685 5683 5680 5676 5673 5670 5668 5666 5664 5662 5660 5658 5656 5655 5653 5652 5653
5732 5730 5728 5726 5724 5723 5721 5718 5716 5714 5713 5711 5708 5705 5704 5701 5699 5696 5694 5692 5690 5687 5684 5682 5680 5678 5677 5675 5672 5668 5664 5661 5659 5658 5657 5656 5654 5652 5650 5648 5647 5646 5645
5721 5720 5718 5716 5714 5713 5712 5709 5707 5707 5705 5702 5699 5697 5695 5693 5691 5687 5684 5683 5680 5677 5675 5672 5671 5670 5668 5666 5663 5660 5657 5654 5652 5651 5650 5650 5648 5647 5644 5642 5641 5639 5638
5711 5710 5708 5706 5705 5703 5702 5700 5700 5698 5696 5693 5690 5688 5686 5684 5681 5678 5675 5673 5669 5667 5666 5664 5662 5661 5659 5657 5655 5653 5651 5648 5645 5645 5644 5642 5641 5639 5638 5636 5635 5633 5632
5701 5699 5697 5696 5695 5694 5693 5691 5690 5689 5686 5683 5681 5679 5676 5674 5671 5669 5667 5664 5661 5659 5657 5656 5654 5652 5650 5648 5646 5644 5643 5641 5639 5637 5636 5634 5633 5632 5631 5630 5628 5627 5625
5691 5689 5687 5685 5683 5683 5682 5682 5680 5678 5676 5673 5671 5668 5666 5664 5661 5659 5657 5655 5654 5652 5650 5649 5646 5643 5642 5642 5639 5636 5635 5633 5631 5629 5628 5627 5625 5624 5623 5622 5621 5620 5618
5680 5678 5677 5675 5674 5673 5672 5672 5671 5669 5666 5663 5661 5658 5656 5653 5651 5649 5647 5647 5645 5644 5643 5641 5638 5636 5634 5632 5631 5629 5626 5624 5622 5620 5620 5619 5617 5617 5616 5615 5615 5614 5612